Regional Weather Roundup
Issued by NWS

Home | Current Version | Previous Version | Text Only | Print | Product List | Glossary On
Versions: 1 2 3 4 5 6 7 8 9 10 11 12 13 14 15 16 17 18 19 20 21 22 23 24 25 26 27
000
ASUS44 KJAN 181310
RWRMS

MISSISSIPPI HOURLY WEATHER ROUNDUP
NATIONAL WEATHER SERVICE JACKSON MS
800 AM CDT WED OCT 18 2017

NOTE: "FAIR: INDICATES FEW OR NO CLOUDS BELOW 12,000 FEET WITH NO
SIGNIFICANT WEATHER AND/OR OBSTRUCTIONS TO VISIBILITY.

MSZ001>002-007>008-010>013-018>021-025>028-034>036-181400-
NORTHWEST MISSISSIPPI

CITY           SKY/WX    TMP DP  RH WIND       PRES   REMARKS
BATESVILLE     FAIR      42  41  96 CALM      30.27S
CLARKSDALE       N/A     48  48 100 E3        30.25S
CLEVELAND      FAIR      53  51  96 SE5       30.24S
GREENWOOD      CLEAR     51  47  86 E3        30.25R
GREENVILLE     CLEAR     48  46  93 CALM      30.23S
OLIVE BRANCH   CLEAR    N/A N/A N/A CALM      30.25R
OXFORD         FAIR      46  45  93 SE6       30.28S
TUNICA           N/A    N/A N/A N/A CALM      30.27R
WINONA         FAIR      42  42 100 CALM      30.26R
$$

MSZ003>006-009-014>017-022>024-029>033-037>039-181400-
NORTHEAST MISSISSIPPI

CITY           SKY/WX    TMP DP  RH WIND       PRES   REMARKS
COLUMBUS AFB   SUNNY     46  46 100 CALM      30.27R
CORINTH        FAIR      41  41 100 CALM      30.29R
GOLDN TRIANGLE SUNNY     52  47  83 SE7       30.28R
STARKVILLE     FAIR      46  45  93 CALM      30.29R
TUPELO         SUNNY     45  42  89 N6        30.28R
$$

MSZ040-058-181400-
CENTRAL MISSISSIPPI

CITY           SKY/WX    TMP DP  RH WIND       PRES   REMARKS
JACKSON INTL   SUNNY     54  48  80 SE3       30.23R
JACKSON HAWKNS CLEAR     52  50  93 SE3       30.23R
MADISON        FAIR      54  48  82 E3        30.23R
MERIDIAN KEY   SUNNY     52  48  86 CALM      30.26R
MERIDIAN NAS   SUNNY     46  43  89 CALM      30.27R
RAYMOND        FAIR      46  46 100 CALM      30.23R
VICKSBURG VKS  SUNNY     52  50  93 CALM      30.24R
$$

MSZ059>079-181400-
SOUTH MISSISSIPPI

CITY           SKY/WX    TMP DP  RH WIND       PRES   REMARKS
HATTIESBURG    SUNNY     50  48  93 CALM      30.25R
LAUREL         FAIR      50  50 100 E3        30.25R
MCCOMB         SUNNY     54  47  77 VRB5      30.21R
NATCHEZ        CLEAR     49  48  97 CALM      30.21S
PINE BELT      SUNNY     53  48  83 NE5       30.25R
$$

MSZ080>082-181400-
COASTAL MISSISSIPPI

CITY           SKY/WX    TMP DP  RH WIND       PRES   REMARKS
BAY ST LOUIS   SUNNY     57  50  77 NE6       30.20R
BILOXI         SUNNY     60  49  67 NE12      30.20R
PASCAGOULA     SUNNY     58  49  72 NE7       30.21R
GULFPORT       MOSUNNY   61  50  67 NE8       30.20R
$$

LAZ007>009-015>016-023>026-181400-
NORTHEAST LOUISIANA

CITY           SKY/WX    TMP DP  RH WIND       PRES   REMARKS
BASTROP        FAIR      47  47  99 CALM      30.22S
TALLULAH/VBURG CLEAR     49  49 100 CALM      30.23R
VIDALIA          N/A    N/A N/A N/A MISG      30.20R
$$




USA.gov is the U.S. government's official web portal to all federal, state and local government web resources and services.